Ellsworth AFB, SD

7:02 PM MDT on March 27, 2017 (GMT -0600)
Ellsworth Air Force Base

Weather History for KRCA - June, 2014

Change the Weather History Date:

Monday, June 9, 2014

  Actual Average Record
Temperature  
Mean Temperature 55 °F -  
Max Temperature 69 °F 69 °F 96 °F (2016)
Min Temperature 41 °F 49 °F 41 °F (2014)
Degree Days  
Heating Degree Days 10    
Growing Degree Days 5 (Base 50)    
Moisture  
Dew Point 44 °F    
Average Humidity 64    
Maximum Humidity 100    
Minimum Humidity 36    
Precipitation  
Precipitation 0.00 in - - ()
Sea Level Pressure  
Sea Level Pressure 30.01 in    
Wind  
Wind Speed 9 mph (SSW)    
Max Wind Speed 22 mph    
Max Gust Speed 29 mph    
Visibility 10 miles    
Events      
Averages and records for this station are not official NWS values.
T = Trace of Precipitation, MM = Missing Value Source: NWS Daily Summary

Daily Weather History Graph

Daily Weather History Graph

Search for Another Location

Airport or City:

Trip Planner

Search our weather history database for the weather conditions in past years. The results will help you decide how hot, cold, wet, or windy it might be!

Date:

Astronomy

Jun. 09, 2014 Rise Set
Actual Time 5:09 AM MDT 8:34 PM MDT
Civil Twilight 4:32 AM MDT 9:10 PM MDT
Nautical Twilight 3:45 AM MDT 9:58 PM MDT
Astronomical Twilight 2:45 AM MDT 10:58 PM MDT
Moon 4:51 PM MDT (6/9) 2:45 AM MDT (6/9)
Length of Visible Light 16h 37m
Length of Day
15h 25m
Waxing Gibbous, 85% of the Moon is Illuminated
Jun 9
Waxing Gibbous
Jun 12
Full
Jun 19
Last Quarter
Jun 27
New
Jul 5
First Quarter

Hourly Weather History & Observations

Time (MDT) Temp. Windchill Dew Point Humidity Pressure Visibility Wind Dir Wind Speed Gust Speed Precip Events Conditions
12:58 AM 43.7 °F 40.3 °F 43.7 °F 100% 30.11 in 10.0 mi WNW 5.8 mph - N/A   Clear
1:58 AM 43.5 °F 39.4 °F 43.2 °F 99% 30.12 in 10.0 mi WNW 6.9 mph - N/A   Clear
2:58 AM 43.5 °F 38.9 °F 42.8 °F 97% 30.11 in 10.0 mi NW 8.1 mph - N/A   Clear
3:58 AM 43.5 °F 39.4 °F 41.4 °F 92% 30.10 in 10.0 mi NNW 6.9 mph - N/A   Clear
4:58 AM 42.6 °F 39.0 °F 40.1 °F 91% 30.10 in 10.0 mi WNW 5.8 mph - N/A   Clear
5:58 AM 41.0 °F 35.8 °F 39.0 °F 93% 30.12 in 10.0 mi WNW 8.1 mph - N/A   Clear
6:58 AM 46.0 °F 43.1 °F 44.4 °F 94% 30.12 in 10.0 mi West 5.8 mph - N/A   Clear
7:58 AM 54.3 °F - 47.5 °F 78% 30.11 in 10.0 mi WSW 5.8 mph - N/A   Clear
8:58 AM 59.9 °F - 44.8 °F 57% 30.09 in 10.0 mi South 3.5 mph - N/A   Clear
9:58 AM 61.9 °F - 45.9 °F 56% 30.08 in 10.0 mi South 3.5 mph - N/A   Clear
10:58 AM 63.5 °F - 39.9 °F 42% 30.08 in 10.0 mi South 5.8 mph - N/A   Clear
11:58 AM 65.5 °F - 44.1 °F 46% 30.05 in 10.0 mi SSE 5.8 mph - N/A   Clear
1:58 PM 68.4 °F - 44.8 °F 43% 30.01 in 10.0 mi SSE 13.8 mph - N/A   Clear
2:58 PM 69.1 °F - 41.4 °F 37% 29.98 in 10.0 mi SSE 19.6 mph - N/A   Partly Cloudy
3:58 PM 69.4 °F - 41.4 °F 36% 29.95 in 10.0 mi SSE 17.3 mph 24.2 mph N/A   Clear
4:58 PM 69.8 °F - 44.4 °F 40% 29.93 in 10.0 mi SSE 21.9 mph 28.8 mph N/A   Clear
5:32 PM 69.8 °F - 44.6 °F 40% 29.93 in 10.0 mi South 19.6 mph 25.3 mph N/A   Clear
5:58 PM 68.7 °F - 44.6 °F 42% 29.92 in 10.0 mi South 17.3 mph 23.0 mph N/A   Clear
6:58 PM 66.9 °F - 44.6 °F 45% 29.89 in 10.0 mi South 15.0 mph - N/A   Clear
7:58 PM 62.4 °F - 46.0 °F 55% 29.87 in 10.0 mi SSE 10.4 mph - N/A   Clear
8:58 PM 59.0 °F - 45.3 °F 60% 29.87 in 10.0 mi South 11.5 mph - N/A   Clear
9:58 PM 56.8 °F - 45.5 °F 66% 29.89 in 10.0 mi South 9.2 mph - N/A   Clear
10:58 PM 57.4 °F - 43.3 °F 59% 29.89 in 10.0 mi South 10.4 mph - N/A   Clear
11:58 PM 54.3 °F - 43.3 °F 66% 29.86 in 10.0 mi South 10.4 mph - N/A   Clear